Погода в Чайке

Россия / Пермский край     56°54′30″N   56°43′24″E
темп.,
°C
ветер,
м/с
пор.,
м/с
влажн.,
%
обл.,
%
осадки,
мм/ч
давл.,
гПа
погр.,
м
23 апреля, пт
пт2323:00+4ю61096100 0.8 1029647
02:00+2ю51197100 2.1 1030497
05:00+2ююз4999100 3.3 1030394
08:00+2ю4898100 0.4 1030382
11:00+3ю3799100 0.4 1030397
14:00+5ю3491100 0.0 1030505
17:00+6ю3479100 0.0 1030720
20:00+6юв2379100 0.0 102961
24 апреля, сб
сб2423:00+5всв3482100 0.0 102874
02:00+3в369077 0.0 1026104
05:00+4всв3789100 0.0 1024191
08:00+5всв4891100 0.0 1022292
11:00+6в4893100 0.4 1020439
14:00+7вюв3792100 0.5 1018412
17:00+6вюв5994100 1.8 1017473
20:00+6вюв61093100 0.8 1015447
25 апреля, вс
вс2523:00+5вюв51092100 1.0 1014497
02:00+4вюв5990100 0.1 1013709
05:00+4юв5997100 0.8 1012807
08:00+3юв5997100 1.4 1011644
11:00+5юв6992100 1.6 1009598
14:00+7ююв71082100 0.4 10071152
17:00+7ююз598293 3.6 10071042
20:00+6юз510746 0.3 1008320
26 апреля, пн
пн2623:00+4зюз612799 0.4 1010492
02:00+3ююз61387100 0.0 1011434
05:00+2юз61484100 0.0 1012523
08:00+3юз8148039 0.0 1012975
11:00+6юз10156417 0.0 10131648
14:00+9зюз10154574 0.1 10132540
17:00+10зюз915515 0.2 10132182
20:00+8зюз8135299 0.2 1013939
27 апреля, вт
вт2723:00+6зюз496230 0.3 1014292
02:00+3ююз227986 0.0 101432
05:00+2ю22843 0.0 101320
08:00+5ю22755 0.0 1012152
11:00+9ю125421 0.0 1011790
14:00+12ююв1345100 0.0 10091849
17:00+13ююв1438100 0.0 10072001
20:00+11ю125299 0.0 100698